This is the latest recevied weather packets stored in our database for station/object DG4MJS-10. If no packets are shown the sender has not sent any weather packets the latest 10 day(s).
| Time | Temp. | Humidity | Pressure | Rain* | Wind** | Luminosity | Snow |
|---|---|---|---|---|---|---|---|
| 1777679101 | 12.22° C | 51% | 1023.2 hPa | - | - | - | - |
| 1777678201 | 12.78° C | 50% | 1023.3 hPa | - | - | - | - |
| 1777677301 | 12.78° C | 49% | 1023.3 hPa | - | - | - | - |
| 1777676401 | 12.78° C | 49% | 1023.4 hPa | - | - | - | - |
| 1777675501 | 12.78° C | 48% | 1023.5 hPa | - | - | - | - |
| 1777674601 | 12.78° C | 48% | 1023.7 hPa | - | - | - | - |
| 1777673701 | 12.78° C | 48% | 1023.7 hPa | - | - | - | - |
| 1777672801 | 13.33° C | 47% | 1023.6 hPa | - | - | - | - |
| 1777671901 | 13.33° C | 49% | 1023.7 hPa | - | - | - | - |
| 1777671000 | 13.33° C | 48% | 1023.8 hPa | - | - | - | - |
| 1777670100 | 13.33° C | 49% | 1023.8 hPa | - | - | - | - |
| 1777669200 | 13.89° C | 47% | 1023.7 hPa | - | - | - | - |
| 1777668300 | 13.89° C | 47% | 1023.8 hPa | - | - | - | - |
| 1777667400 | 13.89° C | 47% | 1023.8 hPa | - | - | - | - |
| 1777666500 | 14.44° C | 48% | 1023.8 hPa | - | - | - | - |
| 1777665600 | 14.44° C | 47% | 1023.7 hPa | - | - | - | - |
| 1777664700 | 14.44° C | 47% | 1023.6 hPa | - | - | - | - |
| 1777663800 | 15° C | 50% | 1023.5 hPa | - | - | - | - |
| 1777662900 | 15° C | 50% | 1023.5 hPa | - | - | - | - |
| 1777662000 | 15.56° C | 55% | 1023.5 hPa | - | - | - | - |
| 1777661100 | 15.56° C | 59% | 1023.3 hPa | - | - | - | - |
| 1777660199 | 15.56° C | 61% | 1023.2 hPa | - | - | - | - |
| 1777659299 | 16.11° C | 62% | 1023 hPa | - | - | - | - |
| 1777658399 | 16.11° C | 63% | 1023.1 hPa | - | - | - | - |
| 1777657499 | 16.11° C | 64% | 1023 hPa | - | - | - | - |
* Rain since midnight (hover to see other rain measurements)
** Current wind speed in m/s (hover to see current wind gust speed)